Location: Rock Island IL
(41.5000°N, 90.5500°W)
Time: 22:51:44
(UTC-05:00)

Envisat - Visible Passes

Search period start: 22 September 2017 00:00
Search period end: 02 October 2017 00:00
Orbit: 764 x 766 km, 98.2° (Epoch: 22 September)

Date Brightness Start Highest point End Pass type
(mag) Time Alt. Az. Time Alt. Az. Time Alt. Az.
22 Sep 4.5 19:32:30 10° ESE 19:35:52 18° ENE 19:39:16 10° NNE visible
22 Sep 3.5 21:11:57 29° SSW 21:14:25 57° W 21:19:27 10° NNW visible
23 Sep 2.9 20:34:58 27° SSE 20:37:43 65° ENE 20:42:46 10° N visible
23 Sep 5.5 22:15:12 12° WSW 22:17:11 15° W 22:19:59 10° WNW visible
24 Sep 3.8 19:58:00 16° ESE 20:01:13 30° ENE 20:05:36 10° N visible
24 Sep 4.5 21:38:12 25° SW 21:40:09 32° W 21:44:42 10° NNW visible
25 Sep 4.7 19:22:11 10° E 19:24:55 15° ENE 19:27:39 10° NNE visible
25 Sep 3.1 21:01:14 36° S 21:03:18 73° WSW 21:08:24 10° NNW visible
26 Sep 3.1 20:24:15 28° SE 20:26:40 51° ENE 20:31:35 10° N visible
26 Sep 5.3 22:04:28 17° WSW 22:05:58 19° W 22:09:30 10° NW visible
27 Sep 4.1 19:47:16 15° ESE 19:50:13 24° ENE 19:54:16 10° NNE visible
27 Sep 4.1 21:27:29 33° SW 21:28:59 41° W 21:33:47 10° NNW visible
28 Sep 2.9 20:50:31 44° SSE 20:52:12 89° ENE 20:57:19 10° NNW visible
29 Sep 3.4 20:13:32 28° ESE 20:15:37 41° ENE 20:20:22 10° N visible
29 Sep 4.9 21:53:46 22° WSW 21:54:46 23° W 21:58:49 10° NW visible
30 Sep 4.3 19:36:34 14° E 19:39:14 20° ENE 19:42:50 10° NNE visible
30 Sep 3.6 21:16:47 44° SW 21:17:51 52° W 21:22:49 10° NNW visible
01 Oct 2.9 20:39:48 49° SE 20:41:07 71° ENE 20:46:12 10° N visible
01 Oct 5.6 22:20:01 13° W 22:20:39 13° W 22:23:02 10° WNW visible
